x

Buoy E01 - Central Maine Shelf (44032) Wave Buoy

3:04pm - Fri 18th Aug 2017 All times are EDT. -4 hours from GMT.

  • Sig Wave height 2.3ft
  • Peak Period 8s
  • Wind
    13mph, 16mph gusts
  • Sea Temp 59°f
  • Air Temp 60°f
  • Sea Pressure 1013.8mb
  • Buoy E01 - Central Maine Shelf
  • Buoy E01 - Central Maine Shelf

More Historic Weather Station data

Upgrade to MSW Pro to gain access to the past 30 days of data for over 8000 Wavebouys and Weather Stations around the globe.

Join

Comparision Forecast

View Surf forecast
   
Fri 08/18 3:04pm 2.5ft 8s 13 16 mph 1013.8mb 59f 60f
2:04pm 2ft 8s 7 9 mph 1014.9mb 59f 62f
1:04pm 1.6ft 8s 7 7 mph 1014.9mb 59f 59f
12:04pm 1.6ft 8s 4 4 mph 1015.1mb 59f 61f
11:04am 1.6ft 8s 2 2 mph 1014.7mb 59f 61f
10:04am 1.6ft 8s 7 7 mph 1014.5mb 59f 61f
9:04am 1.6ft 8s 7 9 mph 1014.3mb 60f 60f
8:04am 2ft 8s 9 9 mph 1014.1mb 60f 60f
7:04am 2ft 8s 4 7 mph 1014.2mb 59f 60f
6:04am 2.5ft 8s 2 4 mph 1014.4mb 59f 60f
5:04am 2.5ft 8s 2 2 mph 1014.5mb 59f 60f
4:04am 3ft 8s  -  2 mph 1014.7mb 59f 60f
3:04am 3ft 8s 4 4 mph 1014.7mb 59f 60f
2:04am 2.5ft 8s 4 4 mph 1014.9mb 59f 61f
1:04am 2.5ft 8s 4 4 mph 1015.2mb 59f 62f
12:04am 2.5ft 11s 4 4 mph 1015mb 59f 62f
Thu 08/17 11:04pm 2.5ft 11s 2 4 mph 1014.9mb 60f 63f
10:04pm 3ft 11s 4 7 mph 1014.7mb 60f 63f
9:04pm 3ft 11s 4 7 mph 1014.1mb 60f 63f
7:04pm 3.5ft 11s 11 13 mph 1013.1mb 60f 64f
6:04pm 2ft 4s 11 13 mph 1012.8mb 60f 64f
5:04pm 4ft 11s 11 13 mph 1012.7mb 60f 64f
4:04pm 4ft 11s 9 11 mph 1013mb 60f 64f
3:04pm 4.5ft 11s 11 16 mph 1013.1mb 60f 64f
2:04pm 4.5ft 11s 11 13 mph 1013.6mb 60f 64f
1:04pm 4.5ft 11s 11 13 mph 1014mb 60f 63f
12:04pm 4ft 11s 11 16 mph 1014.6mb 60f 63f
11:04am 3.5ft 11s 16 18 mph 1014.9mb 60f 63f
10:04am 3.5ft 11s 11 11 mph 1015.5mb 60f 62f
9:04am 4ft 11s 11 13 mph 1015.4mb 59f 62f
8:04am 4ft 11s 9 11 mph 1015.4mb 59f 62f
7:04am  -   -  11 13 mph 1015.2mb 59f 62f
6:04am 3ft 11s 9 11 mph 1014.7mb 60f 61f
5:04am 3.5ft 11s 9 11 mph 1014.6mb 60f 61f
4:04am 4.5ft 11s 11 13 mph 1014.6mb 59f 61f
3:04am 4.5ft 11s 9 11 mph 1014.6mb 59f 61f
2:04am 7ft 11s 4 7 mph 1014.6mb 60f 61f
1:04am  -   -  7 9 mph 1014.6mb 60f 62f
12:04am  -   -  11 16 mph 1014.8mb 60f 63f
Wed 08/16 11:04pm  -   -  13 16 mph 1014.6mb 60f 64f
9:04pm 3.5ft 11s 13 16 mph 1013.6mb 61f 66f
8:04pm 1.6ft 6s 11 13 mph 1012.6mb 61f 66f
7:04pm 1.3ft 3s 11 13 mph 1011.9mb 62f 67f
6:04pm 1.6ft 3s 7 9 mph 1011.5mb 62f 68f
5:04pm  -   -  11 13 mph 1011.2mb 62f 69f
4:04pm 3.5ft 11s 13 16 mph 1011.1mb 62f 69f
3:04pm  -   -  16 18 mph 1011mb 62f 68f
2:04pm 3.5ft 8s 11 13 mph 1011.1mb 62f 68f
1:04pm 4ft 11s 4 7 mph 1011.1mb 62f 66f
12:04pm 4ft 11s 11 11 mph 1011.4mb 61f 67f
11:04am 3.5ft 11s 4 7 mph 1011.5mb 61f 66f
10:04am 3.5ft 11s 4 7 mph 1011.4mb 61f 64f
9:04am 3ft 11s 4 7 mph 1011.3mb 61f 64f
8:04am 3.5ft 11s 11 11 mph 1011mb 62f 65f
7:04am 3.5ft 5s 7 9 mph 1010.4mb 62f 64f
6:04am 3.5ft 11s 7 9 mph 1009.9mb 62f 63f
5:04am 3ft 5s 7 9 mph 1009.5mb 62f 63f
4:04am 2.5ft 5s 9 9 mph 1009.1mb 62f 64f
3:04am 3ft 5s 11 13 mph 1009.1mb 63f 65f
2:04am 4.5ft 5s 11 13 mph 1009.1mb 64f 65f
1:04am 3.5ft 5s 13 16 mph 1009.3mb 64f 65f
12:04am 3.5ft 5s 16 18 mph 1009.8mb 64f 66f
Tue 08/15 11:04pm 4ft 5s 16 18 mph 1010.1mb 64f 66f
10:04pm 3.5ft 4s 18 20 mph 1010.3mb 64f 67f
9:04pm 2.5ft 4s 18 20 mph 1010mb 65f 68f
8:04pm 3ft 8s 13 18 mph 1010mb 65f 67f
7:04pm 2.5ft 6s 16 18 mph 1010.3mb 65f 67f
6:04pm 2.5ft 6s 11 13 mph 1010.2mb 65f 67f
5:04pm 2.5ft 6s 9 11 mph 1010.6mb 65f 67f
4:04pm 2.5ft 8s 11 13 mph 1011.2mb 66f 67f
3:04pm 2.5ft 6s 7 7 mph 1011.8mb 65f 66f
2:04pm 2.5ft 8s 4 4 mph 1012.1mb 65f 66f
1:04pm 2.5ft 8s 4 7 mph 1012.3mb 65f 66f
12:04pm 2ft 8s 7 7 mph 1012.8mb 64f 66f
11:04am 2ft 8s 7 7 mph 1013.1mb 63f 65f
10:04am 2.5ft 8s 2 4 mph 1013.3mb 64f 65f
9:04am 2.5ft 8s 2 4 mph 1013.3mb 64f 65f
8:04am 2.5ft 8s 4 9 mph 1013.2mb 64f 65f
7:04am 2.5ft 6s 7 7 mph 1013.3mb 64f 65f
5:04am 3.5ft 6s 11 13 mph 1013.1mb 64f 64f
4:04am 3.5ft 8s 9 9 mph 1013.1mb 64f 64f